Theta_e
282 281 281 280 280 280 280 281 282 282 282 282 282 281 281 280 280 280 280 279 280 280
280 280 279 279 280 280 280 280 280 280 279 280 280 280 280 279 279 279 279 279 279 279
279 279 279 279 278 278 278 278 278 278 278 278 278 278 278 278 278 277 277 278 277 278
277 277 278 277 277 277 277 277 276 276 276 276 275 276 277 277 277 276 276 276 275 276
276 276 275 275 275 275 275 275 274 274 273 273 273 274 274 275 275 274 273 274 274 274
274 273 273 273 273 273 272 272 272 271 271 271 271 271 272 273 273 273 273 274 274 274
272 271 271 271 271 270 270 269 269 269 269 269 269 269 270 271 272 272 273 273 274 274
270 270 269 269 268 268 267 267 267 267 267 267 268 269 270 271 271 271 271 273 274 274
268 268 267 266 265 266 265 265 266 266 266 266 267 270 271 271 271 272 271 272 273 275
266 265 264 264 264 263 264 265 264 265 265 265 266 270 272 273 272 272 272 273 274 274
264 263 263 262 262 263 264 263 264 263 265 265 266 270 272 273 272 272 273 274 275 276
263 262 262 261 262 263 263 263 263 264 264 264 265 270 272 273 272 272 273 275 276 277
263 262 261 262 263 263 263 263 264 264 264 265 265 270 272 273 273 271 273 275 276 278
263 262 263 263 263 263 263 264 263 264 265 266 267 268 273 274 273 273 273 274 274 275
Wind_Speed
15 10 11 13 13 11 12 12 16 14 15 17 17 15 15 12 12 14 13 17 16 13
15 16 14 17 15 11 15 13 16 16 17 17 18 17 16 12 14 13 14 15 15 14
15 16 16 15 17 17 16 17 17 17 17 18 18 19 17 14 14 14 12 12 16 15
15 16 16 15 16 17 18 17 17 18 18 19 18 20 18 16 16 16 16 16 16 19
17 18 17 17 18 18 18 18 19 19 19 19 19 20 19 18 15 16 17 18 19 19
17 17 18 19 18 18 19 19 19 19 19 19 19 20 19 19 17 17 17 17 17 18
17 18 18 19 19 19 18 19 19 18 18 19 18 19 19 19 17 16 16 18 19 19
16 18 18 19 19 19 19 18 19 18 18 19 17 14 18 17 17 17 19 19 17 18
13 14 16 17 19 18 18 18 18 17 18 18 14 27 28 24 16 16 17 17 17 17
12 15 14 15 16 15 17 17 17 17 17 16 17 27 27 26 15 15 16 16 15 15
13 14 14 14 14 14 14 15 14 15 15 15 15 28 28 28 16 15 17 17 17 14
13 14 14 14 15 14 14 14 13 14 15 16 16 27 27 23 16 15 16 14 15 12
13 13 14 14 14 14 13 14 12 15 15 17 17 23 26 22 12 14 12 11 12 17
12 13 13 13 12 13 13 13 13 13 14 15 14 15 25 26 13 13 11 10 11 11
Wind_Direction
321 317 316 313 313 307 305 304 309 304 305 300 297 295 291 289 289 287 288 291 291 289
325 321 316 315 309 306 308 306 306 308 306 306 303 296 294 289 286 287 291 289 288 287
322 320 315 311 311 312 313 312 308 311 309 303 302 300 292 289 285 286 285 284 286 283
322 319 319 317 318 319 315 313 317 310 309 306 308 305 296 293 288 288 292 292 291 289
325 326 323 321 323 321 320 319 320 318 314 311 306 303 306 296 298 297 294 293 286 280
328 328 326 326 326 324 327 319 317 321 316 316 315 313 311 307 305 298 293 291 292 291
331 331 330 328 328 325 323 323 321 320 318 318 314 312 307 302 300 300 299 292 286 283
327 329 327 329 326 325 325 323 322 321 320 315 314 308 309 302 300 302 292 286 287 283
326 322 328 324 323 327 324 325 322 323 315 320 315 315 309 303 292 293 293 288 285 281
321 325 323 320 320 320 321 320 322 317 320 311 312 309 313 307 300 299 295 293 290 287
326 320 318 318 317 317 319 321 321 312 315 314 313 318 316 318 315 304 296 292 288 281
325 319 319 317 316 320 320 319 312 318 315 311 308 314 320 321 309 302 302 301 307 309
322 320 315 313 318 320 313 310 318 312 309 307 303 312 322 323 317 314 309 319 324 332
325 317 312 315 318 312 313 310 307 309 310 304 315 318 325 329 330 325 331 348 346 339